When you browse on this site, cookies collect data to enhance your experience and personalize the content and advertising you see.
Visit our Privacy Policy to learn more. By continuing to use the site, you agree to this use of cookies and data.
  • En España
  • Lista de países
  • Para 7 días
  • Temperatura del agua
  • El tiempo en el mapa
  • Informadores
  • user-avatar
    Iniciar sesión

    Tiempo cada hora Valencia

    Hoy, 31 Mayo, Domingo

    Tiempo Temperatura Precipitaciones Viento Presión Humedad
    00:00 +24°C° 0 mm 1 mps 718 mmHg 95%
    01:00 +24°C° 0 mm 1 mps 718 mmHg 95%
    02:00 +24°C° 0 mm 1 mps 718 mmHg 95%
    03:00 +24°C° 0 mm 1 mps 718 mmHg 95%
    04:00 +21°C° 0 mm 0 mps 718 mmHg 95%
    05:00 +22°C° 0.1 mm 0 mps 718 mmHg 92%
    06:00 +23°C° 0.1 mm 0 mps 719 mmHg 89%
    07:00 +24°C° 0.1 mm 0 mps 719 mmHg 87%
    08:00 +26°C° 1.5 mm 1 mps 720 mmHg 86%
    09:00 +27°C° 1.5 mm 1 mps 720 mmHg 85%
    10:00 +27°C° 1.5 mm 2 mps 720 mmHg 84%
    11:00 +26°C° 2.4 mm 2 mps 720 mmHg 87%
    12:00 +25°C° 2.4 mm 2 mps 719 mmHg 91%
    13:00 +24°C° 2.4 mm 1 mps 719 mmHg 95%
    14:00 +24°C° 1.3 mm 1 mps 718 mmHg 95%
    15:00 +24°C° 1.3 mm 1 mps 718 mmHg 95%
    16:00 +24°C° 1.3 mm 1 mps 718 mmHg 95%
    17:00 +24°C° 0 mm 1 mps 718 mmHg 95%
    18:00 +24°C° 0 mm 1 mps 718 mmHg 94%
    19:00 +24°C° 0 mm 1 mps 718 mmHg 94%
    20:00 +22°C° 0 mm 0 mps 718 mmHg 93%
    21:00 +22°C° 0 mm 0 mps 718 mmHg 91%
    22:00 +22°C° 0 mm 0 mps 719 mmHg 90%
    23:00 +21°C° 0 mm 0 mps 718 mmHg 90%

    Mañana, 1 Junio, Lunes

    Tiempo Temperatura Precipitaciones Viento Presión Humedad
    00:00 +21°C° 0 mm 0 mps 718 mmHg 90%
    01:00 +21°C° 0 mm 0 mps 718 mmHg 90%
    02:00 +21°C° 0 mm 0 mps 718 mmHg 90%
    03:00 +21°C° 0 mm 0 mps 718 mmHg 91%
    04:00 +21°C° 0 mm 0 mps 718 mmHg 92%
    05:00 +22°C° 0 mm 0 mps 718 mmHg 89%
    06:00 +22°C° 0 mm 0 mps 719 mmHg 86%
    07:00 +23°C° 0 mm 0 mps 719 mmHg 84%
    08:00 +27°C° 0 mm 1 mps 719 mmHg 76%
    09:00 +29°C° 0 mm 1 mps 720 mmHg 68%
    10:00 +31°C° 0 mm 1 mps 720 mmHg 60%
    11:00 +31°C° 0.2 mm 1 mps 720 mmHg 60%
    12:00 +31°C° 0.2 mm 2 mps 719 mmHg 60%
    13:00 +32°C° 0.2 mm 2 mps 718 mmHg 60%
    14:00 +31°C° 0.2 mm 1 mps 718 mmHg 62%
    15:00 +31°C° 0.2 mm 1 mps 717 mmHg 64%
    16:00 +31°C° 0.2 mm 1 mps 717 mmHg 66%
    17:00 +29°C° 0.1 mm 1 mps 717 mmHg 74%
    18:00 +27°C° 0.1 mm 1 mps 717 mmHg 83%
    19:00 +25°C° 0.1 mm 1 mps 717 mmHg 92%
    20:00 +25°C° 0 mm 1 mps 718 mmHg 92%
    21:00 +24°C° 0 mm 1 mps 718 mmHg 93%
    22:00 +24°C° 0 mm 1 mps 719 mmHg 94%
    23:00 +24°C° 0 mm 1 mps 718 mmHg 94%

    Pasado mañana, 2 Junio, Martes

    Tiempo Temperatura Precipitaciones Viento Presión Humedad
    00:00 +24°C° 0 mm 1 mps 718 mmHg 95%
    01:00 +24°C° 0 mm 1 mps 718 mmHg 95%
    02:00 +23°C° 0 mm 1 mps 718 mmHg 95%
    03:00 +23°C° 0 mm 1 mps 718 mmHg 95%
    04:00 +23°C° 0 mm 1 mps 717 mmHg 95%
    05:00 +24°C° 0 mm 1 mps 718 mmHg 92%
    06:00 +25°C° 0 mm 1 mps 718 mmHg 89%
    07:00 +26°C° 0 mm 1 mps 719 mmHg 86%
    08:00 +27°C° 0.1 mm 1 mps 719 mmHg 79%
    09:00 +29°C° 0.1 mm 1 mps 720 mmHg 71%
    10:00 +31°C° 0.1 mm 1 mps 720 mmHg 64%
    11:00 +31°C° 0.4 mm 1 mps 719 mmHg 65%
    12:00 +31°C° 0.4 mm 1 mps 718 mmHg 66%
    13:00 +31°C° 0.4 mm 1 mps 717 mmHg 66%
    14:00 +30°C° 0.2 mm 2 mps 717 mmHg 69%
    15:00 +30°C° 0.2 mm 2 mps 717 mmHg 71%
    16:00 +29°C° 0.2 mm 2 mps 716 mmHg 74%
    17:00 +27°C° 0.1 mm 2 mps 716 mmHg 80%
    18:00 +26°C° 0.1 mm 2 mps 717 mmHg 87%
    19:00 +24°C° 0.1 mm 1 mps 717 mmHg 93%
    20:00 +24°C° 0 mm 1 mps 717 mmHg 93%
    21:00 +24°C° 0 mm 1 mps 718 mmHg 92%
    22:00 +23°C° 0 mm 1 mps 718 mmHg 92%
    23:00 +23°C° 0 mm 1 mps 718 mmHg 92%

    3 Junio, Miércoles

    Tiempo Temperatura Precipitaciones Viento Presión Humedad
    00:00 +23°C° 0 mm 1 mps 717 mmHg 92%
    01:00 +21°C° 0 mm 0 mps 717 mmHg 92%
    02:00 +23°C° 0 mm 1 mps 717 mmHg 93%
    03:00 +23°C° 0 mm 1 mps 717 mmHg 94%
    04:00 +22°C° 0 mm 1 mps 717 mmHg 94%
    05:00 +22°C° 0 mm 0 mps 717 mmHg 91%
    06:00 +23°C° 0 mm 0 mps 718 mmHg 87%
    07:00 +24°C° 0 mm 0 mps 719 mmHg 83%
    08:00 +26°C° 0 mm 0 mps 719 mmHg 76%
    09:00 +29°C° 0 mm 1 mps 719 mmHg 68%
    10:00 +31°C° 0 mm 1 mps 719 mmHg 61%
    11:00 +32°C° 0.2 mm 1 mps 719 mmHg 59%
    12:00 +32°C° 0.2 mm 1 mps 718 mmHg 57%
    13:00 +32°C° 0.2 mm 1 mps 717 mmHg 55%
    14:00 +32°C° 0 mm 1 mps 717 mmHg 57%
    15:00 +31°C° 0 mm 2 mps 716 mmHg 59%
    16:00 +31°C° 0 mm 2 mps 716 mmHg 62%
    17:00 +29°C° 0 mm 2 mps 716 mmHg 71%
    18:00 +27°C° 0 mm 1 mps 716 mmHg 81%
    19:00 +25°C° 0 mm 1 mps 716 mmHg 90%
    20:00 +24°C° 0 mm 1 mps 717 mmHg 91%
    21:00 +24°C° 0 mm 1 mps 717 mmHg 92%
    22:00 +24°C° 0 mm 1 mps 718 mmHg 92%
    23:00 +23°C° 0 mm 1 mps 717 mmHg 93%

    4 Junio, Jueves

    Tiempo Temperatura Precipitaciones Viento Presión Humedad
    00:00 +23°C° 0 mm 1 mps 717 mmHg 94%
    01:00 +23°C° 0 mm 1 mps 716 mmHg 94%
    02:00 +23°C° 0 mm 1 mps 716 mmHg 94%
    03:00 +23°C° 0 mm 1 mps 717 mmHg 94%
    04:00 +21°C° 0 mm 0 mps 717 mmHg 94%
    05:00 +22°C° 0 mm 0 mps 717 mmHg 90%
    06:00 +23°C° 0 mm 0 mps 718 mmHg 86%
    07:00 +24°C° 0 mm 0 mps 718 mmHg 81%
    08:00 +28°C° 0 mm 1 mps 719 mmHg 73%
    09:00 +30°C° 0 mm 1 mps 719 mmHg 64%
    10:00 +31°C° 0 mm 1 mps 719 mmHg 56%
    11:00 +32°C° 0 mm 1 mps 719 mmHg 54%
    12:00 +32°C° 0 mm 1 mps 718 mmHg 52%
    13:00 +33°C° 0 mm 1 mps 717 mmHg 50%
    14:00 +32°C° 0 mm 1 mps 717 mmHg 53%
    15:00 +32°C° 0 mm 2 mps 716 mmHg 56%
    16:00 +31°C° 0 mm 2 mps 716 mmHg 59%
    17:00 +29°C° 0 mm 2 mps 716 mmHg 69%
    18:00 +27°C° 0 mm 2 mps 717 mmHg 78%
    19:00 +25°C° 0 mm 1 mps 717 mmHg 88%
    20:00 +24°C° 0 mm 1 mps 718 mmHg 89%
    21:00 +24°C° 0 mm 1 mps 718 mmHg 90%
    22:00 +24°C° 0 mm 1 mps 718 mmHg 91%
    23:00 +24°C° 0 mm 1 mps 718 mmHg 92%

    5 Junio, Viernes

    Tiempo Temperatura Precipitaciones Viento Presión Humedad
    00:00 +23°C° 0 mm 1 mps 718 mmHg 93%
    01:00 +23°C° 0 mm 1 mps 717 mmHg 94%
    02:00 +23°C° 0 mm 1 mps 717 mmHg 94%
    03:00 +23°C° 0 mm 1 mps 717 mmHg 94%
    04:00 +23°C° 0 mm 1 mps 718 mmHg 94%
    05:00 +22°C° 0 mm 0 mps 718 mmHg 89%
    06:00 +23°C° 0 mm 0 mps 719 mmHg 84%
    07:00 +24°C° 0 mm 0 mps 719 mmHg 79%
    08:00 +28°C° 0 mm 1 mps 719 mmHg 71%
    09:00 +30°C° 0 mm 1 mps 720 mmHg 64%
    10:00 +31°C° 0 mm 1 mps 720 mmHg 56%
    11:00 +31°C° 0.3 mm 1 mps 719 mmHg 58%
    12:00 +31°C° 0.3 mm 1 mps 718 mmHg 59%
    13:00 +31°C° 0.3 mm 1 mps 718 mmHg 61%
    14:00 +31°C° 1.6 mm 1 mps 717 mmHg 67%
    15:00 +30°C° 1.6 mm 1 mps 717 mmHg 74%
    16:00 +29°C° 1.6 mm 1 mps 717 mmHg 81%
    17:00 +27°C° 0.7 mm 1 mps 717 mmHg 85%
    18:00 +26°C° 0.7 mm 1 mps 717 mmHg 89%
    19:00 +25°C° 0.7 mm 1 mps 718 mmHg 93%
    20:00 +25°C° 0.1 mm 1 mps 718 mmHg 93%
    21:00 +24°C° 0.1 mm 1 mps 718 mmHg 94%
    22:00 +24°C° 0.1 mm 1 mps 719 mmHg 95%
    23:00 +24°C° 0.5 mm 1 mps 719 mmHg 95%
    Mostrar más